Home > Time Zones > World Clock > Weather > Iran > Ahvaz > Past weeks

Flag for Iran Weather past 2 weeks in Ahvaz, Iran

Now
99 °F

Clear.


Feels Like: 108 °F
Forecast: 85 / 113 °F
Wind: 7 mph from South

Location: Ahwaz

Current Time: Aug 30, 2014 at 10:55:53 PM

Latest Report: Aug 30, 2014 at 10:00 PM


Visibility: 10 mi

Pressure: 29.56 "Hg

Humidity: 42%

Dew point: 72 °F

Location of AhvazLocation

Historic Weather in Ahvaz — Graph

°F

Ahvaz temperature yesterday

Maximum temperature yesterday: 113 °F (at 3:00 PM)
Minimum temperature yesterday: 86 °F (at 6:30 AM)
Average temperature yesterday: 100 °F

Past Weeks' High & Low Weather Summary

 TemperatureHumidityPressure
High118 °F (Aug 16, 4:30 PM)89% (Aug 27, 5:30 AM)29.77 "Hg (Aug 27, 5:30 AM)
Low81 °F (Aug 23, 7:30 AM)8% (Aug 21, 8:20 PM)29.33 "Hg (Aug 16, 4:30 PM)
Average102 °F36%29.55 "Hg
* Reported Aug 15 9:30 PM — Aug 30 9:30 PM, Ahvaz, Weather by CustomWeather, © 2014

Note: Actual official high and low records may vary slightly from our data, if they occured in-between our weather recording intervals... More about our weather records

Advertising

Ahvaz weather history for previous 24 hours

 ConditionsComfort  
Time TempWeatherWind HumidityBarometerVisibility
9:30 PM
Aug 30
99 °FClear.No wind42%29.56 "Hg10 mi
8:55 PM97 °FSunny.No wind44%29.56 "Hg10 mi
8:30 PM99 °FSunny.No wind42%29.56 "Hg10 mi
7:55 PM100 °FSunny.No wind40%29.56 "Hg10 mi
7:30 PM104 °FSunny.No wind35%29.53 "Hg10 mi
6:55 PM106 °FSunny.5 mph30%29.53 "Hg10 mi
6:30 PM108 °FSunny.5 mph30%29.53 "Hg10 mi
5:55 PM108 °FSunny.7 mph30%29.53 "Hg10 mi
5:30 PM109 °FSunny.7 mph28%29.53 "Hg10 mi
4:55 PM109 °FSunny.7 mph27%29.53 "Hg10 mi
4:30 PM111 °FSunny.7 mph24%29.53 "Hg10 mi
3:55 PM109 °FSunny.7 mph25%29.56 "Hg10 mi
3:30 PM109 °FSunny.7 mph25%29.56 "Hg10 mi
2:55 PM109 °FSunny.7 mph25%29.59 "Hg10 mi
2:30 PM109 °FSunny.7 mph27%29.59 "Hg10 mi
2:00 PM108 °FSunny.7 mph26%29.59 "Hg10 mi
1:30 PM108 °FSunny.No wind26%29.59 "Hg10 mi
1:00 PM106 °FSunny.5 mph30%29.62 "Hg10 mi
12:30 PM104 °FSunny.No wind35%29.62 "Hg10 mi
12:00 PM102 °FSunny.5 mph37%29.65 "Hg10 mi
11:30 AM100 °FSunny.5 mph42%29.65 "Hg4 mi
11:00 AM99 °FSunny.7 mph50%29.65 "Hg2 mi
10:30 AM95 °FSunny.5 mph67%29.65 "Hg2 mi
10:00 AM95 °FHaze.2 mph63%29.65 "Hg2 mi
9:30 AM91 °FHaze.No wind71%29.65 "Hg2 mi
9:00 AM90 °FHaze.No wind75%29.62 "Hg2 mi
8:30 AM88 °FHaze.No wind75%29.62 "Hg2 mi
8:00 AM88 °FHaze.5 mph70%29.59 "Hg1 mi
7:30 AM88 °FHaze.5 mph70%29.59 "Hg1 mi
6:30 AM88 °FHaze.5 mph79%29.59 "Hg1 mi
5:30 AM88 °FHaze.5 mph75%29.59 "Hg2 mi
4:30 AM90 °FHaze.7 mph71%29.56 "Hg2 mi
3:30 AM91 °FHaze.No wind67%29.56 "Hg2 mi
2:30 AM91 °FHaze.5 mph67%29.56 "Hg2 mi
1:30 AM91 °FHaze.7 mph67%29.56 "Hg2 mi
11:30 PM
Aug 29
97 °FClear.9 mph47%29.56 "Hg4 mi
11:00 PM97 °FClear.7 mph44%29.56 "Hg10 mi
10:00 PM99 °FClear.2 mph39%29.56 "Hg10 mi
Weather by CustomWeather, © 2014

See weather overviewHow to use our weather pages